Weather History for KMSS - March, 2013

Change the Weather History Date:

Thursday, March 21, 2013

  Actual Average Record
Temperature  
Mean Temperature 27 °F 30 °F  
Max Temperature 34 °F 40 °F 81 °F (2012)
Min Temperature 19 °F 21 °F -5 °F (2007)
Degree Days  
Heating Degree Days 38 35  
Month to date heating degree days 786 825  
Since 1 July heating degree days 6236 6812  
Cooling Degree Days 0 0  
Month to date cooling degree days 0 0  
Year to date cooling degree days 0 0  
Moisture  
Dew Point 16 °F    
Average Humidity 60    
Maximum Humidity 75    
Minimum Humidity 45    
Precipitation  
Precipitation T in 0.07 in 0.78 in (1974)
Month to date precipitation 0.36 1.37  
Year to date precipitation 2.61 5.32  
Sea Level Pressure  
Sea Level Pressure 29.70 in    
Wind  
Wind Speed 12 mph (SW)    
Max Wind Speed 22 mph    
Max Gust Speed 29 mph    
Visibility 10 miles    
Events      
T = Trace of Precipitation, MM = Missing Value Source: NWS Daily Summary

Daily Weather History Graph

Daily Weather History Graph

Search for Another Location

Airport or City:

Trip Planner

Search our weather history database for the weather conditions in past years. The results will help you decide how hot, cold, wet, or windy it might be!

Date:

Astronomy

Mar. 21, 2013 Rise Set
Actual Time 7:00 AM EDT 7:13 PM EDT
Civil Twilight 6:30 AM EDT 7:42 PM EDT
Nautical Twilight 5:56 AM EDT 8:17 PM EDT
Astronomical Twilight 5:21 AM EDT 8:52 PM EDT
Moon 1:28 PM EDT (3/21) 3:33 AM EDT (3/21)
Length of Visible Light 13h 11m
Length of Day
12h 13m
Waxing Gibbous, 68% of the Moon is Illuminated
Mar 21
Waxing Gibbous
Mar 27
Full
Apr 3
Last Quarter
Apr 10
New
Apr 18
First Quarter

Hourly Weather History & Observations

Time (EDT) Temp. Windchill Dew Point Humidity Pressure Visibility Wind Dir Wind Speed Gust Speed Precip Events Conditions
12:53 AM 28.9 °F 19.2 °F 16.0 °F 58% 29.72 in 10.0 mi WSW 11.5 mph 19.6 mph N/A   Overcast
1:53 AM 26.6 °F 16.2 °F 15.8 °F 64% 29.71 in 10.0 mi SW 11.5 mph - N/A   Clear
2:53 AM 25.0 °F 15.5 °F 14.0 °F 63% 29.72 in 10.0 mi SW 9.2 mph - N/A   Clear
3:53 AM 24.1 °F 13.1 °F 15.1 °F 69% 29.71 in 10.0 mi SW 11.5 mph - N/A   Clear
4:53 AM 21.9 °F 10.4 °F 14.0 °F 72% 29.72 in 10.0 mi SW 11.5 mph - N/A   Clear
5:53 AM 21.0 °F 11.4 °F 14.0 °F 74% 29.72 in 10.0 mi SW 8.1 mph - N/A   Clear
6:53 AM 19.9 °F 7.9 °F 12.9 °F 74% 29.72 in 10.0 mi SW 11.5 mph - N/A   Clear
7:53 AM 21.0 °F 10.6 °F 14.0 °F 74% 29.73 in 10.0 mi SW 9.2 mph - N/A   Scattered Clouds
8:53 AM 24.1 °F 12.5 °F 16.0 °F 71% 29.72 in 10.0 mi SW 12.7 mph - N/A   Overcast
9:53 AM 26.1 °F 15.6 °F 16.0 °F 66% 29.70 in 10.0 mi SW 11.5 mph 21.9 mph N/A   Overcast
10:53 AM 28.9 °F 18.6 °F 17.1 °F 61% 29.70 in 10.0 mi WSW 12.7 mph - N/A   Overcast
11:53 AM 32.0 °F 20.8 °F 17.1 °F 54% 29.70 in 10.0 mi SW 17.3 mph 25.3 mph N/A   Overcast
12:53 PM 32.0 °F 21.6 °F 15.1 °F 50% 29.70 in 10.0 mi SW 15.0 mph - N/A   Overcast
1:53 PM 33.1 °F 23.0 °F 15.1 °F 48% 29.69 in 10.0 mi WSW 15.0 mph 20.7 mph N/A   Overcast
2:53 PM 32.0 °F 21.6 °F 14.0 °F 48% 29.67 in 10.0 mi WSW 15.0 mph 21.9 mph N/A   Overcast
4:53 PM 32.0 °F 21.6 °F 16.0 °F 52% 29.68 in 10.0 mi SW 15.0 mph - N/A   Overcast
5:53 PM 30.9 °F 20.2 °F 19.0 °F 61% 29.68 in 10.0 mi SW 15.0 mph - N/A   Overcast
6:53 PM 30.0 °F 21.1 °F 18.0 °F 61% 29.70 in 10.0 mi SW 10.4 mph - N/A   Overcast
7:53 PM 28.0 °F 15.7 °F 17.1 °F 63% 29.70 in 10.0 mi SW 17.3 mph - N/A   Mostly Cloudy
8:53 PM 27.0 °F 18.7 °F 18.0 °F 69% 29.71 in 10.0 mi SSW 8.1 mph - N/A   Overcast
9:53 PM 27.0 °F 17.3 °F 17.1 °F 66% 29.71 in 10.0 mi SSW 10.4 mph - N/A   Mostly Cloudy
10:53 PM 26.1 °F 18.4 °F 18.0 °F 71% 29.70 in 10.0 mi South 6.9 mph - N/A   Overcast
11:53 PM 26.1 °F 18.4 °F 19.9 °F 78% 29.70 in 10.0 mi SSW 6.9 mph - N/A   Overcast